Location: Chuathbaluk
(61.5726°N, 159.2454°W)
Time: 07:45:57
(UTC+00:00)

NUDT-PHONESAT - Pass Details

Date: 19 January 2021
Orbit: 479 x 498 km, 97.4° (Epoch: 08 March)

Event Time Altitude Azimuth Distance (km) Brightness Sun altitude
Rises 04:19:51 0° 172° (S) 2,568 ? -14.5°
Reaches altitude 10° 04:21:56 10° 177° (S) 1,693 ? -14.8°
Maximum altitude 04:25:32 59° 258° (WSW) 584 ? -15.2°
Drops below altitude 10° 04:29:12 10° 338° (NNW) 1,717 ? -15.6°
Sets 04:31:19 0° 342° (NNW) 2,609 ? -15.8°
